Regional Weather Roundup
Issued by NWS

Home | Current Version | Previous Version | Graphics & Text | Print | Product List | Glossary On
Versions: 1 2 3 4 5 6 7 8 9 10 11 12 13 14 15 16 17 18 19 20 21 22 23 24 25 26 27 28 29 30 31 32 33 34 35 36 37 38 39 40 41 42 43 44 45 46 47 48 49 50
000
ASUS43 KBIS 271220
RWRND

NORTH DAKOTA REGIONAL WEATHER ROUNDUP
NATIONAL WEATHER SERVICE BISMARCK ND
700 AM CDT WED MAY 27 2015

NOTE: "FAIR" INDICATES FEW OR NO CLOUDS BELOW 12,000 FEET WITH NO
SIGNIFICANT WEATHER AND/OR OBSTRUCTIONS TO VISIBILITY.


NDZ001>003-009>011-017-271300-
NORTHWEST NORTH DAKOTA

CITY           SKY/WX    TMP DP  RH WIND       PRES   REMARKS
WILLISTON      CLEAR     52  44  74 S3        29.93R
6HR MIN TEMP:  47; 6HR MAX TEMP:  64;

MINOT          CLEAR     57  47  69 N7        29.93R
MINOT AFB      CLEAR     57  54  88 NE5       29.92R
$$

NDZ018>021-031>035-040>046-271300-
SOUTHWEST NORTH DAKOTA

CITY           SKY/WX    TMP DP  RH WIND       PRES   REMARKS
BISMARCK       CLEAR     52  47  83 CALM      29.96R
6HR MIN TEMP:  48; 6HR MAX TEMP:  57;

DICKINSON      CLEAR     49  44  83 E6        29.94S
GARRISON         N/A     57  47  69 CALM      29.94R
6HR MIN TEMP:  53; 6HR MAX TEMP:  59;

HETTINGER ARPT PTCLDY    50  45  83 SE6       29.98R
$$

NDZ004>008-012>016-024-026-027-054-271300-
NORTHEAST NORTH DAKOTA

CITY           SKY/WX    TMP DP  RH WIND       PRES   REMARKS
GRAND FORKS    PTSUNNY   57  50  77 N13       29.89R
GRND FRKS AFB  SUNNY     56  50  82 N10       29.91R
DEVILS LAKE    SUNNY     55  48  76 NE8       29.94R
$$

NDZ022-023-025-028>030-036>039-047>053-271300-
SOUTHEAST NORTH DAKOTA

CITY           SKY/WX    TMP DP  RH WIND       PRES   REMARKS
FARGO          SUNNY     56  49  77 W5        29.88R
6HR MIN TEMP:  51; 6HR MAX TEMP:  61;

JAMESTOWN      SUNNY     56  50  80 CALM      29.92R
$$




USA.gov is the U.S. government's official web portal to all federal, state and local government web resources and services.